Probability
0 0 0 0 0 0 0 0 0 0 0 0 0 0 0 0 0 0 0 0 0 0 0 0 0 0 0 0 0 0 0 0 0 0 0 0 0 0 0 0 0 0 0 0
0 0 0 0 0 0 0 0 0 0 0 0 0 0 0 0 0 0 0 0 0 0 0 0 0 0 0 0 0 0 0 0 0 0 0 0 0 0 0 0 0 0 0 0
0 0 0 0 0 0 0 0 0 0 0 0 0 0 0 0 0 0 0 0 0 0 0 0 0 0 0 0 0 0 0 0 0 0 0 0 0 0 0 0 0 0 0 0
0 0 0 0 0 0 0 0 0 0 0 0 0 0 0 0 0 0 0 0 0 0 0 0 0 0 0 0 0 0 0 0 0 0 0 0 0 0 0 0 0 0 0 0
0 0 0 0 0 0 0 0 0 0 0 0 0 0 0 0 0 0 0 0 0 0 0 0 0 0 0 0 0 0 0 0 0 0 0 0 0 0 0 0 0 0 0 0
0 0 0 0 0 0 0 0 0 0 0 0 0 0 0 0 0 0 0 0 0 0 0 0 0 0 0 0 0 0 0 0 0 0 0 0 0 0 0 0 0 0 0 0
0 0 0 0 0 0 0 0 0 0 0 0 0 0 0 0 0 0 0 0 0 0 0 0 0 0 0 0 0 0 0 0 0 0 0 0 0 0 0 0 0 0 0 0
0 0 0 0 0 0 0 0 0 0 0 0 0 0 0 0 0 0 0 0 0 0 0 0 0 0 0 0 0 0 0 0 0 0 0 0 0 0 0 0 0 0 0 0
0 0 0 0 0 0 0 0 0 0 0 0 0 0 0 0 0 0 0 0 0 0 0 0 0 0 0 0 0 0 0 0 0 0 0 0 0 0 0 0 0 0 0 0
0 0 0 0 0 0 0 0 0 0 0 0 0 0 0 0 0 0 0 0 0 0 0 0 0 0 0 0 0 0 0 0 0 0 0 0 0 0 0 0 0 0 0 0
0 0 0 0 0 0 0 0 0 0 0 0 0 0 0 0 0 0 0 0 0 0 0 0 0 0 0 0 0 0 0 0 0 0 0 0 0 0 0 0 0 0 0 0
0 0 0 0 0 0 0 0 0 0 0 0 0 0 0 0 0 0 0 0 0 0 0 0 0 0 0 0 0 0 0 0 0 0 0 0 0 0 0 0 0 0 0 0
0 0 0 0 0 0 0 0 0 0 0 0 0 0 0 0 0 0 0 0 0 0 0 0 0 0 0 0 0 0 0 0 0 0 0 0 0 0 0 0 0 0 0 0
0 0 0 0 0 0 0 0 0 0 0 0 0 0 0 0 0 0 0 0 0 0 0 0 0 0 0 0 0 0 0 0 0 0 0 0 0 0 0 0 0 0 0 0
0 0 0 0 0 0 0 0 0 0 0 0 0 0 0 0 0 0 0 0 0 0 0 0 0 0 0 0 0 0 0 0 0 0 0 0 0 0 0 0 0 0 0 0
0 0 0 0 0 0 0 0 0 0 0 0 0 0 0 0 0 0 0 0 0 0 0 0 0 0 0 0 0 0 0 0 0 0 0 0 0 0 0 0 0 0 0 0
0 0 0 0 0 0 0 0 0 0 0 0 0 0 0 0 0 0 0 0 0 0 0 0 0 0 0 0 0 0 0 0 0 0 0 0 0 0 0 0 0 0 0 0
0 0 0 0 0 0 0 0 0 0 0 0 0 0 0 0 0 0 0 0 0 0 0 0 0 0 0 0 0 0 0 0 0 0 0 0 0 0 0 0 0 0 0 0
0 0 0 0 0 0 0 0 0 0 0 0 0 0 0 0 0 0 0 0 0 0 0 0 0 0 0 0 0 0 0 0 0 0 0 0 0 0 0 0 0 0 0 0
0 0 0 0 0 0 0 0 0 0 0 0 0 0 0 0 0 0 0 0 0 0 0 0 0 0 0 0 0 0 0 0 0 0 0 0 0 0 0 0 0 0 0 0
0 0 0 0 0 0 0 0 0 0 0 0 0 0 0 0 0 0 0 0 0 0 0 0 0 0 0 0 0 0 0 0 0 0 0 0 0 0 0 0 0 0 0 0
0 0 0 0 0 0 0 0 0 0 0 0 0 0 0 0 0 0 0 0 0 0 0 0 0 0 0 0 0 0 0 0 0 0 0 0 0 0 0 0 0 0 0 0
0 0 0 0 0 0 0 0 0 0 0 0 0 0 0 0 0 0 0 0 0 0 0 0 0 0 0 0 0 0 0 0 0 0 0 0 0 0 0 0 0 0 0 0
0 0 0 0 0 0 0 0 0 0 0 0 0 0 0 0 0 0 0 0 0 0 0 0 0 0 0 0 0 0 0 0 0 0 0 0 0 0 0 0 0 0 0 0
0 0 0 0 0 0 0 0 0 0 0 0 0 0 0 0 0 0 0 0 0 0 0 0 0 0 0 0 0 0 0 0 0 0 0 0 0 0 0 0 0 0 0 0
0 0 0 0 0 0 0 0 0 0 0 0 0 0 0 0 0 0 0 0 0 0 0 0 0 0 0 0 0 0 0 0 0 0 0 0 0 0 0 0 0 0 0 0
0 0 0 0 0 0 0 0 0 0 0 0 0 0 0 0 0 0 0 0 0 0 0 0 0 0 0 0 0 0 0 0 0 0 0 0 0 0 0 0 0 0 0 0
Wind_Speed
2 3 4 5 9 12 11 8 7 4 5 7 7 8 8 7 6 5 5 5 6 7 7 8 8 8 9 9 9 9 9 9 9 9 8 8 8 9 9 9 9 8 8 8
1 2 4 6 9 13 13 13 12 10 11 10 8 6 7 6 5 5 4 4 5 6 7 7 8 8 8 9 9 9 9 9 9 9 9 10 9 9 10 11 10 10 10 9
2 2 3 9 12 15 11 11 11 13 10 7 7 8 7 6 4 2 2 3 4 5 6 6 7 7 7 8 8 8 9 9 9 9 10 10 10 10 11 11 11 11 10 10
2 2 7 1 2 8 12 12 12 10 11 10 10 9 6 3 1 0 1 1 2 4 5 5 5 6 6 6 7 8 8 8 8 8 9 9 10 10 10 9 9 9 9 10
2 4 6 4 4 7 8 7 11 14 14 11 7 6 3 3 2 2 2 2 2 3 3 4 5 5 5 7 7 8 8 8 8 8 8 9 10 9 8 9 9 9 9 10
3 4 5 1 3 5 5 4 5 8 8 6 3 4 1 6 5 4 3 2 2 2 3 4 4 4 6 7 7 7 7 7 7 8 8 9 9 8 8 8 9 9 9 9
6 6 6 2 4 7 5 3 4 4 5 4 5 3 3 6 5 5 4 4 3 3 3 3 3 4 6 6 6 5 5 6 7 8 8 8 8 8 8 8 8 8 8 7
7 8 6 5 8 6 0 2 1 3 4 4 5 2 3 6 6 7 6 5 4 4 4 3 3 5 5 5 4 5 6 7 7 7 6 6 7 7 7 7 7 7 6 6
7 5 1 4 5 1 0 2 3 3 3 4 4 5 5 6 8 8 7 6 6 5 5 4 4 4 5 4 4 5 6 7 6 7 6 6 6 6 5 5 4 4 4 4
6 7 6 6 6 4 3 4 4 4 4 5 6 6 6 7 8 8 8 8 7 7 6 5 5 5 5 5 5 6 7 6 6 6 6 5 4 4 3 3 3 3 3 2
7 5 4 5 4 2 2 3 3 4 4 6 6 6 7 7 9 9 8 8 8 7 7 7 6 6 6 6 6 7 7 6 5 5 5 5 5 4 4 4 3 2 2 1
6 5 4 3 3 1 2 4 4 5 5 5 6 7 7 7 8 9 9 9 8 8 8 7 7 7 6 6 6 7 6 5 4 4 3 3 4 5 6 6 6 5 3 1
2 1 2 1 1 2 4 5 6 6 6 6 5 6 7 7 8 9 10 10 10 9 9 8 8 7 7 6 6 6 6 5 4 3 3 3 2 2 3 4 5 4 4 2
2 2 3 1 1 4 6 7 6 5 5 5 4 5 6 7 8 10 10 10 9 9 9 8 8 7 7 7 6 6 6 5 4 3 3 2 2 1 1 1 2 1 1 3
3 1 2 3 4 5 5 5 5 5 4 4 4 5 6 8 9 9 9 9 9 9 9 9 9 8 7 7 7 7 5 4 4 3 3 2 2 2 1 1 2 2 2 2
2 1 2 3 4 5 5 5 6 6 6 5 5 6 7 7 7 7 8 10 10 11 10 10 9 8 8 8 7 6 5 6 5 4 3 3 2 2 2 2 2 2 2 3
2 1 1 3 5 6 7 7 7 8 7 7 6 5 6 6 7 8 8 9 8 8 9 9 8 8 8 8 7 5 5 6 7 4 3 3 3 2 2 2 2 3 3 3
1 2 3 5 7 8 9 8 8 8 8 7 5 5 7 8 9 8 8 8 7 6 7 8 8 9 9 8 7 5 5 5 5 4 4 3 3 2 2 2 3 3 3 4
0 2 3 5 6 7 8 8 8 8 7 5 5 6 7 7 7 7 8 9 9 9 8 8 12 10 9 9 8 5 6 6 5 4 3 4 3 2 2 2 3 3 4 4
1 2 3 4 5 5 7 7 7 6 5 3 3 4 5 5 5 7 8 8 7 5 7 9 10 8 9 9 10 6 6 6 5 4 4 3 3 3 2 3 3 4 4 4
2 3 4 5 5 5 6 6 6 5 4 2 2 3 3 4 5 6 7 6 5 5 8 13 9 8 8 9 10 6 6 6 5 5 4 4 3 3 3 3 4 4 4 5
2 3 4 5 5 5 5 5 5 4 3 2 1 1 2 3 5 5 6 4 5 9 8 8 7 10 11 12 7 6 6 6 5 4 4 4 3 3 3 4 4 4 4 5
2 3 4 4 5 5 5 5 6 5 4 3 2 1 2 3 4 4 4 4 5 11 8 7 10 15 17 10 6 6 6 6 5 5 4 4 3 3 3 4 4 4 5 5
2 3 4 4 4 4 5 6 6 5 4 3 2 2 2 2 3 3 2 5 9 11 7 10 16 18 16 7 6 6 6 6 5 4 4 4 3 3 4 4 4 4 5 7
2 3 3 3 4 3 5 6 5 4 4 3 3 3 2 1 2 2 3 5 9 10 6 10 17 18 11 6 7 7 6 6 5 5 4 4 4 4 4 4 4 5 5 6
2 2 2 3 3 3 4 4 4 4 4 4 3 3 2 1 1 2 2 4 6 9 7 6 9 12 8 7 7 7 6 6 6 5 5 4 4 4 4 4 6 5 6 6
2 2 2 2 2 2 3 3 4 4 4 4 5 3 3 2 2 2 2 3 4 5 5 6 6 7 7 7 6 6 5 5 5 4 4 4 4 4 4 5 5 5 5 6
Wind_Direction
96 114 161 197 198 197 208 215 221 230 245 264 289 305 311 315 324 331 348 359 3 2 1 2 3 4 4 4 5 6 13 20 19 19 23 29 39 50 57 62 66 73 81 85
160 187 214 237 223 213 221 229 239 257 272 270 282 287 294 307 320 325 346 359 3 2 2 3 3 3 6 10 12 16 26 29 29 36 43 46 50 59 66 69 72 75 79 84
177 168 243 249 225 208 208 213 220 233 244 267 282 297 309 314 312 320 348 360 4 3 5 4 6 7 12 15 21 30 35 37 38 44 51 53 58 62 65 69 73 76 80 85
170 191 241 203 130 204 216 225 222 238 254 269 287 306 303 291 263 175 58 18 16 10 11 12 14 21 27 32 37 42 42 43 45 53 60 61 63 65 66 69 72 74 76 80
206 250 270 261 190 179 193 230 223 232 253 271 296 289 232 159 142 119 104 72 44 33 26 29 31 33 46 51 50 51 48 48 50 59 66 67 66 65 66 70 70 70 72 78
207 250 251 116 129 173 187 198 177 209 242 270 278 274 122 147 153 145 134 123 102 84 69 59 52 55 64 61 58 53 52 56 59 65 72 74 74 72 71 73 74 75 75 78
223 248 266 226 143 160 202 151 154 212 251 259 245 283 87 146 159 156 148 140 131 115 97 77 76 84 79 71 61 59 66 70 69 71 75 79 80 80 83 84 85 85 86 83
205 226 244 147 161 194 206 74 220 256 259 255 249 231 175 177 172 168 162 158 152 139 123 109 110 110 96 81 79 85 87 83 79 78 81 83 88 88 91 97 97 97 97 92
212 228 31 169 199 209 329 267 273 266 257 246 240 226 203 193 184 177 174 167 164 159 146 135 133 136 122 116 119 113 102 93 90 88 84 87 92 96 98 99 102 106 107 104
241 247 243 237 243 255 256 261 273 264 259 240 240 231 210 196 186 180 179 176 171 171 167 155 147 144 135 137 137 128 115 108 104 100 94 90 88 88 92 96 103 107 104 105
238 253 256 237 211 223 283 287 286 275 254 247 243 231 214 201 190 183 179 179 179 182 176 165 158 152 150 152 149 135 124 117 112 104 104 95 83 70 71 63 47 67 81 84
220 209 208 164 113 27 317 311 311 296 274 249 235 232 214 205 192 184 180 178 181 183 178 172 167 161 160 162 159 146 137 135 128 123 117 114 112 101 76 77 87 82 78 42
224 121 243 298 338 33 325 313 308 290 274 267 247 230 214 203 190 184 182 183 186 184 179 174 173 169 168 168 167 162 151 146 142 142 141 137 138 140 135 103 83 64 40 13
165 194 233 226 303 331 316 305 297 286 275 267 253 228 211 200 190 189 190 187 182 177 177 176 176 175 171 169 167 160 153 150 154 152 153 155 158 166 197 229 234 210 16 351
164 197 275 310 307 313 317 310 296 284 279 268 243 225 209 202 198 196 187 176 172 175 178 180 181 176 170 172 168 163 160 157 158 153 154 156 160 176 201 229 259 274 277 278
179 268 276 282 296 311 312 306 295 290 285 271 250 232 219 212 203 189 179 175 178 185 185 185 186 175 169 171 168 165 165 161 158 158 161 170 181 195 211 232 254 270 283 297
191 224 266 284 297 304 302 295 289 288 284 270 256 235 210 198 192 188 185 186 189 187 185 187 182 168 171 174 172 167 161 163 167 168 177 184 191 203 218 242 264 280 288 298
238 270 278 284 292 297 298 296 290 285 278 273 254 213 200 198 200 194 184 177 177 181 189 186 173 167 172 174 173 166 164 164 171 177 179 187 194 202 222 250 270 281 291 293
236 290 297 294 294 293 293 296 297 292 285 268 231 214 209 207 201 185 174 178 187 194 193 179 173 170 173 177 170 167 167 167 171 176 181 188 192 209 230 253 270 281 289 293
33 350 330 320 315 307 304 307 306 302 299 272 226 209 207 202 188 178 182 195 201 190 167 171 173 174 176 177 172 169 171 174 176 176 183 195 205 219 235 254 268 278 283 285
16 354 343 334 328 325 324 322 319 319 319 283 222 215 209 192 182 180 188 205 197 171 170 175 175 176 176 174 174 171 174 176 179 182 187 197 208 223 239 253 264 271 278 283
353 343 339 336 335 337 340 339 340 340 346 338 292 204 181 184 190 199 209 211 179 180 177 179 178 180 178 173 173 174 176 178 179 182 190 198 210 227 241 253 263 270 274 277
339 333 335 339 336 331 342 355 356 352 348 338 314 252 221 212 200 203 216 202 181 188 183 184 185 183 179 171 173 176 178 180 182 187 193 201 213 228 244 255 263 269 273 276
329 333 334 333 334 346 353 351 347 345 340 332 322 296 250 224 220 220 223 191 193 192 191 190 187 185 178 174 176 178 181 184 185 187 192 201 214 227 240 251 260 266 270 274
310 316 323 333 343 344 336 331 332 340 344 339 334 328 301 255 240 225 208 203 200 194 190 193 191 188 180 177 181 182 183 186 185 185 193 203 214 227 239 247 255 264 269 271
282 298 307 312 313 318 322 325 326 329 330 326 324 320 315 303 268 233 214 207 206 196 189 188 190 189 182 182 185 184 183 187 193 195 198 207 221 231 242 250 259 261 266 270
264 277 288 295 300 311 314 314 314 317 319 315 311 307 303 294 273 244 226 210 204 196 192 191 190 185 180 181 182 182 180 182 187 192 197 208 219 231 242 251 258 264 268 270